Location: Home
(42.5358°N, 72.7383°W)
Time: 17:50:37
(UTC-04:00)

Explorer 11/Cluster Stage 4 - Pass Details

Date: 10 August 2024
Orbit: 464 x 1208 km, 28.8° (Epoch: 19 September)

Event Time Altitude Azimuth Distance (km) Brightness Sun altitude
Rises 01:18:09 0° 242° (WSW) 3,503 - -31.8°
Reaches altitude 10° 01:21:00 10° 230° (SW) 2,685 - -31.8°
Maximum altitude 01:26:22 26° 177° (S) 1,950 - -31.6°
Drops below altitude 10° 01:32:23 10° 124° (SE) 3,047 - -31.5°
Exits shadow 01:35:45 - 113° (ESE) 4,043 10.1 -31.4°
Sets 01:35:50 0° 113° (ESE) 4,069 10.1 -31.3°
